Погода в Агадыре

Поиск расширенной информации на нашем сайте:

Полезная информация:

Новости сайта



02.01.2020
Опубликован Долгосрочный прогноз погоды по городам России и ближнего зарубежья на январь 2020 года.
Карты: Прогноз на январь и февраль 2020 года, Сравнение прогнозируемой аномалии приземной температуры воздуха на январь 2020 года по разным моделям.




Погода в Агадыре - сегодня

Время (UTC), дата Ветер
(°,м/с) 
Видим.   Явления Облачность Т
(°С)
Тd
(°С)
f(%) Тe
(°С)
Pmin
(гПа)
dP
(гПа)
Po
(мм)
O2
(г/м3)
Тmin Tmax R s Состояние
почвы
12 22.10.21 220 (ЮЗ) 20000 м  {ливн. осадки}  8/8 600 м кучево-дожд., средняя 
[Cb cap|Ac trans]
+1.8 -7.2 51 -1  1029.9  1.2  710  285           
15 22.10.21 240 (ЮЗ) н/о    10/10 600 м кучево-дожд. 
[Cb cap]
+0.9 -4.2 69 -2  1031.9  1.6  711  286    +3  0.0     
18 22.10.21 220 (ЮЗ) н/о    8/8 600 м кучево-дожд. 
[Cb cap]
+0.8 -4.7 67 -2  1031.9  -0.1  711  286    +3  0.0     
21 22.10.21 220 (ЮЗ) н/о    10/10 600 м кучево-дожд. 
[Cb cap]
+0.6 -4.9 67 -3  1032  711  286           
00 23.10.21 230 (ЮЗ) н/о    10/10 600 м кучево-дожд. 
[Cb cap]
+0.4 -1.9 85 -3  1032.4  0.4  711  286           
03 23.10.21 200 (Ю) 2000 м  ливневой снег  10/10 600 м кучево-дожд. 
[Cb cap]
+0.6 -1.1 88 -3  1033.1  0.7  712  286  -0.2      равномерный
сухой снег
100% 
06 23.10.21 210 (ЮЗ) 20000 м  {ливн. осадки}  9/3 600 м кучево-дожд., средняя 
[Cb cap|Ac trans]
+2.9 +0 81 1032.8  0.4  712  284  -0.2    0.0     
09 23.10.21 230 (ЮЗ) 20000 м    9/1 600 м средняя 
[Cu med, cong|Ac trans]
+6.5 -1.2 58 +4  1030.6  -1.1  711  280           
12 23.10.21 230 (ЮЗ) 20000 м    3/0 средняя 
[Ac trans]
+6.2 -3.7 49 +4  1030.8  0.1  711  281           
15 23.10.21 170 (Ю) н/о    3/0 средняя 
[Ac trans]
+2.9 -3.7 62 +2  1032.8  0.9  712  284    +7.8  0.0     
18 23.10.21 240 (ЮЗ) н/о    8/8 1000 м 
[Sc]
+3.1 -4.9 56 +1  1032.9  0.2  712  284    +7.8  0.0     
21 23.10.21 210 (ЮЗ) н/о    9/9 1000 м 
[Sc]
+3.8 -5.8 49 +1  1033  0.2  712  284           
00 24.10.21 250 (З) н/о    10/10 600 м 
[Sc]
+4.6 -6.2 45 +2  1032.4  -0.3  712  283           
03 24.10.21 200 (Ю) 20000 м    9/9 600 м 
[Sc]
+4.3 -2.6 61 +4  1032.6  0.1  712  283           
06 24.10.21 180 (Ю) 20000 м    9/9 600 м 
[Sc]
+8.2 -2.9 45 +8  1030.7  -0.6  712  279  +2         
09 24.10.21 200 (Ю) 20000 м    1/0 средняя 
[Ac trans]
+12.2 -0.8 41 +12  1027.5  -1.8  710  274           
12 24.10.21 160 (Ю) 20000 м    ясно 
+10 -1.5 45 +10  1027.3  -0.8  710  276           
15 24.10.21 160 (Ю) н/о    ясно 
+4.1 -1.5 67 +4  1028.7  -0.3  710  282    +13       
18 24.10.21 150 (ЮВ) н/о    ясно 
-0.5 -3.2 82 -1  1028.6  -1.5  708  286    +13       
21 24.10.21 130 (ЮВ) н/о    ясно 
-2.1 -4.3 85 -3  1027.4  -1.6  707  288           
00 25.10.21 130 (ЮВ) н/о    ясно 
-3.5 -5.1 89 -3  1026.9  -0.9  707  289           
03 25.10.21 160 (Ю) 20000 м    3/0 верхняя 
[Ci sp]
-1.9 -4.7 81 -1  1026.2  -0.1  706  287           
06 25.10.21 140 (ЮВ) 20000 м    5/0 верхняя 
[Ci sp]
+8.6 -0.9 51 +9  1021.8  -1.1  706  276  -5.2         
09 25.10.21 140 (ЮВ) 20000 м    6/0 верхняя 
[Ci]
+13 -3.3 32 +13  1018.3  -2  704  271           
12 25.10.21 130 (ЮВ) 20000 м    10/0 верхняя 
[Ci fib]
+13 -1.4 37 +13  1017.4  -0.8  704  271           
Время (UTC), дата Ветер
(°,м/с) 
Видим.   Явления Облачность Т
(°С)
Тd
(°С)
f(%) Тe
(°С)
Pmin
(гПа)
dP
(гПа)
Po
(мм)
O2
(г/м3)
Тmin Tmax R s Состояние
почвы

Для получения пояснительной информации подведите курсор к названию столбца.

ПОГОДА в Агадыре - архив

Всё, что Вы хотите узнать о погоде в Агадыре - удобно и подробно!

Выберите нужную дату (начиная с 1 января 2019* года) и нажмите кнопку "Найти".
Будут отображены архивные сводки погоды по пункту Агадыр, начиная с указанной даты.


Отображать данные в формате CSV (для использования в таблицах Excel)


Внимание! Наш архив погоды предназначен исключительно для личного некоммерческого использования в познавательных целях. Если Вам необходимы официальные справки о состоянии погоды (для производственных, юридических, коммерческих и т.п. целей), обращайтесь в органы Росгидромета.

*Примечание: данная дата относится к архиву по метеостанциям СССР (Россия, СНГ, Балтия).
Архив по метеостанциям Зарубежной Европы и Азии (кроме Китая) хранится 10 дней, по другим регионам земного шара (Китай, Африка, Америка, Австралия, Океания) - 1 день.

Агадыр - район местоположения метеостанции


Название, широта, долгота, высота метеостанции:
Агадыр 48.3°ш. 72.8°д. 694 м над ур. моря [Казахстан]

Дополнительная информация

В oтличие oт бoльшинства пoгoдных сайтoв мы публикуем пoдрoбную метеoинфoрмацию в детальнoм прoфессиoнальнoм фoрмате.

Характеристики температуры и влажнoсти вoздуха измеряются на высoте 2 м в тени вдали oт зданий и деревьев.
Скoрoсть ветра измеряется на высoте 10 м (на урoвне рoста челoвека скoрoсть ветра ниже в 1.5-2 раза). Если метеoстанция нахoдится в гoрoде или в лесу, тo скoрoсть ветра занижена на 2-4 м/с пo сравнению с oткрытым местoм. Скoрoсть ветра над акватoриями крупных рек и oзёр, а также на вершинах хoлмoв на 2-5 м/с выше, чем в oбычных услoвиях.
Атмoсфернoе давление в разных тoчках местнoсти мoжет значительнo oтличаться oт давления на метеoстанции, в зависимoсти oт услoвий рельефа (при пoдъёме на 10 м давление пoнижается примернo на 1 мм рт.ст.).